Weather History for KUNV - July, 2013

Change the Weather History Date:

Friday, July 12, 2013

  Actual Average Record
Temperature  
Mean Temperature 68 °F -  
Max Temperature 73 °F 80 °F 92 °F (1952)
Min Temperature 62 °F 60 °F 46 °F (1945)
Cooling Degree Days 2    
Growing Degree Days 18 (Base 50)    
Moisture  
Dew Point 60 °F    
Average Humidity 80    
Maximum Humidity 96    
Minimum Humidity 60    
Precipitation  
Precipitation 0.09 in - - ()
Sea Level Pressure  
Sea Level Pressure 30.07 in    
Wind  
Wind Speed 4 mph (NE)    
Max Wind Speed 12 mph    
Max Gust Speed -    
Visibility 10 miles    
Events Rain    
Averages and records for this station are not official NWS values.
T = Trace of Precipitation, MM = Missing Value Source: NWS Daily Summary

Daily Weather History Graph

Daily Weather History Graph

Search for Another Location

Airport or City:

Trip Planner

Search our weather history database for the weather conditions in past years. The results will help you decide how hot, cold, wet, or windy it might be!

Date:

Astronomy

Jul. 12, 2013 Rise Set
Actual Time 5:50 AM EDT 8:43 PM EDT
Civil Twilight 5:17 AM EDT 9:15 PM EDT
Nautical Twilight 4:36 AM EDT 9:56 PM EDT
Astronomical Twilight 3:48 AM EDT 10:44 PM EDT
Moon 10:07 AM EDT (7/12) 10:50 PM EDT (7/12)
Length of Visible Light 15h 57m
Length of Day
14h 52m
Waxing Crescent, 17% of the Moon is Illuminated
Jul 12
Waxing Crescent
Jul 15
First Quarter
Jul 22
Full
Jul 29
Last Quarter
Aug 6
New

Hourly Weather History & Observations

Time (EDT) Temp. Dew Point Humidity Pressure Visibility Wind Dir Wind Speed Gust Speed Precip Events Conditions
12:15 AM 65.8 °F 57.6 °F 75% 30.01 in 10.0 mi Calm Calm - N/A   Clear
12:35 AM 65.3 °F 57.4 °F 76% 30.01 in 10.0 mi North 3.5 mph - N/A   Clear
12:55 AM 64.2 °F 57.9 °F 80% 30.01 in 10.0 mi Calm Calm - N/A   Scattered Clouds
1:15 AM 63.7 °F 57.7 °F 81% 30.01 in 10.0 mi Calm Calm - N/A   Scattered Clouds
1:35 AM 63.5 °F 58.5 °F 84% 30.02 in 10.0 mi Calm Calm - N/A   Mostly Cloudy
1:55 AM 63.5 °F 58.5 °F 84% 30.03 in 10.0 mi Calm Calm - N/A   Overcast
2:15 AM 64.9 °F 58.1 °F 78% 30.03 in 10.0 mi NE 4.6 mph - N/A   Overcast
2:35 AM 64.4 °F 57.9 °F 79% 30.03 in 10.0 mi NE 5.8 mph - N/A   Mostly Cloudy
2:55 AM 63.5 °F 58.1 °F 83% 30.03 in 10.0 mi Calm Calm - N/A   Scattered Clouds
3:15 AM 64.6 °F 58.1 °F 79% 30.03 in 10.0 mi NE 4.6 mph - N/A   Overcast
3:35 AM 64.2 °F 57.9 °F 80% 30.03 in 10.0 mi NNE 4.6 mph - N/A   Scattered Clouds
3:55 AM 63.5 °F 58.1 °F 83% 30.03 in 10.0 mi NE 6.9 mph - N/A   Scattered Clouds
4:15 AM 63.5 °F 58.3 °F 83% 30.03 in 10.0 mi NE 6.9 mph - N/A   Clear
4:35 AM 63.1 °F 58.3 °F 84% 30.05 in 10.0 mi Calm Calm - N/A   Clear
4:55 AM 62.6 °F 59.0 °F 88% 30.06 in 10.0 mi Calm Calm - N/A   Clear
5:15 AM 62.6 °F 59.5 °F 90% 30.05 in 10.0 mi NE 4.6 mph - N/A   Mostly Cloudy
5:35 AM 63.7 °F 58.8 °F 84% 30.05 in 10.0 mi NNE 5.8 mph - N/A   Overcast
5:53 AM 62.6 °F 59.0 °F 88% 30.04 in 10.0 mi NE 5.8 mph - N/A   Overcast
6:53 AM 62.6 °F 59.0 °F 88% 30.07 in 10.0 mi NNE 6.9 mph - N/A   Scattered Clouds
7:53 AM 62.6 °F 60.8 °F 94% 30.07 in 10.0 mi NE 9.2 mph - N/A   Clear
8:53 AM 62.6 °F 60.8 °F 94% 30.10 in 10.0 mi NE 9.2 mph - N/A   Clear
9:53 AM 64.4 °F 60.8 °F 88% 30.10 in 10.0 mi NE 9.2 mph - N/A   Clear
10:53 AM 66.2 °F 60.8 °F 83% 30.10 in 10.0 mi ENE 11.5 mph - N/A   Overcast
11:53 AM 69.8 °F 60.8 °F 73% 30.10 in 10.0 mi Variable 5.8 mph - N/A   Overcast
12:53 PM 69.8 °F 60.8 °F 73% 30.11 in 10.0 mi Variable 5.8 mph - N/A   Overcast
1:53 PM 71.6 °F 60.8 °F 69% 30.11 in 10.0 mi ENE 10.4 mph - N/A   Mostly Cloudy
2:53 PM 71.6 °F 62.6 °F 73% 30.10 in 10.0 mi ENE 8.1 mph - N/A   Mostly Cloudy
3:53 PM 73.4 °F 62.6 °F 69% 30.09 in 10.0 mi NE 8.1 mph - N/A   Partly Cloudy
4:53 PM 73.4 °F 64.4 °F 73% 30.09 in 10.0 mi ENE 8.1 mph - N/A   Partly Cloudy
5:53 PM 73.4 °F 62.6 °F 69% 30.09 in 10.0 mi NNE 5.8 mph - N/A   Partly Cloudy
6:53 PM 71.6 °F 60.8 °F 69% 30.08 in 10.0 mi NNE 8.1 mph - N/A   Partly Cloudy
7:53 PM 71.6 °F 62.6 °F 73% 30.10 in 10.0 mi NE 6.9 mph - N/A   Partly Cloudy
8:53 PM 69.8 °F 55.4 °F 60% 30.11 in 10.0 mi NNE 6.9 mph - N/A   Scattered Clouds
9:35 PM 70.2 °F 61.5 °F 74% 30.11 in 10.0 mi NNE 5.8 mph - N/A   Overcast
9:55 PM 70.0 °F 61.7 °F 75% 30.12 in 10.0 mi NNE 6.9 mph - N/A   Overcast
10:15 PM 70.2 °F 61.3 °F 74% 30.13 in 10.0 mi NNE 8.1 mph - N/A   Overcast
10:35 PM 69.1 °F 61.7 °F 77% 30.14 in 10.0 mi NE 6.9 mph - N/A Rain Rain
10:55 PM 67.6 °F 62.6 °F 84% 30.15 in 10.0 mi ENE 4.6 mph - N/A Rain Light Rain
11:15 PM 67.3 °F 62.8 °F 85% 30.15 in 10.0 mi ENE 4.6 mph - N/A Rain Rain
11:35 PM 65.7 °F 63.9 °F 94% 30.15 in 4.0 mi Calm Calm - 0.09 in Rain Rain
11:55 PM 65.3 °F 64.2 °F 96% 30.15 in 4.0 mi Calm Calm - N/A Rain Rain